Location: Dattensoll
(49.9928°N, 9.8954°E)
Time: 19:35:44
(UTC+00:00)

Cosmos 2333 Rocket - Pass Details

Date: 19 May 2025
Orbit: 840 x 862 km, 70.8° (Epoch: 19 June)

Event Time Altitude Azimuth Distance (km) Brightness Sun altitude
Rises 22:04:05 0° 332° (NNW) 3,443 7.0 -18.2°
Reaches altitude 10° 22:06:40 10° 338° (NNW) 2,499 5.9 -18.3°
Maximum altitude 22:12:12 47° 52° (NE) 1,128 3.0 -18.6°
Enters shadow 22:15:54 20° 117° (ESE) 1,867 3.6 -18.7°
